Location: Moonridge Observatory
(39.2268°N, 77.7914°W)
Time: 05:45:55
(UTC-04:00)

Amateur Radio Satellites - All Passes

Search period start: 25 August 2016 05:15
Search period end: 26 August 2016 05:15
Location: Moonridge Observatory, 39.2268°N, 77.7914°W

Satellite Date Start Highest point End Downlink Frequencies (MHz)
Time Altitude Azimuth
HORYU 2 25 Aug 05:18:16 05:21:09 17° 93° (E) 05:24:01 437.375
MOZHAYETS 4 25 Aug 05:24:25 05:27:20 17° 268° (W) 05:30:16
RS-15 25 Aug 05:37:31 05:46:54 26° 335° (NNW) 05:56:38 29.354- 29.394
KKS-1 25 Aug 05:41:47 05:43:52 13° 268° (W) 05:45:58 437.445
PHONESAT 2.4 25 Aug 05:42:26 05:45:25 66° 357° (N) 05:48:24 2401.200-2431.200
ITAMSAT 1 25 Aug 05:50:09 05:52:48 14° 299° (WNW) 05:55:27 435.822/435.867
AO-85 25 Aug 05:59:51 06:04:45 38° 114° (ESE) 06:09:28 145.980
BRITE-PL 25 Aug 06:01:10 06:05:51 26° 93° (E) 06:10:29 437.365/2234.400
AO-7 25 Aug 06:02:49 06:10:41 49° 296° (WNW) 06:18:30 29.400- 29.500
YUBILEINY 25 Aug 06:10:53 06:18:22 32° 84° (E) 06:25:51 435.215
Cubesat XI-IV 25 Aug 06:15:49 06:18:21 13° 90° (E) 06:20:51 437.490
CUTE-I 25 Aug 06:27:46 06:31:23 18° 93° (E) 06:34:57 437.470
Cosmos 2504 25 Aug 06:29:04 06:31:43 12° 77° (ENE) 06:34:19 435.465 / 435.565
CUBESAT XI-V 25 Aug 06:35:15 06:38:56 24° 266° (W) 06:42:39 437.345
NOAA 15 25 Aug 06:38:16 06:42:54 30° 96° (E) 06:47:31 137.62
STRAND 1 25 Aug 06:41:49 06:45:51 24° 66° (ENE) 06:49:53 437.568
NOAA 18 25 Aug 06:41:51 06:46:03 22° 94° (E) 06:50:13 137.9125
Cosmos 2491 25 Aug 06:52:42 07:01:25 67° 268° (W) 07:10:07 435.465 / 435.565
HORYU 2 25 Aug 06:53:43 06:57:52 40° 289° (WNW) 07:01:59 437.375
LilacSat-2 25 Aug 07:13:33 07:17:15 52° 100° (E) 07:20:55 437.200
PHONESAT 2.4 25 Aug 07:18:52 07:21:52 83° 193° (SSW) 07:24:52 2401.200-2431.200
GOMX 1 25 Aug 07:30:20 07:35:50 79° 102° (ESE) 07:41:03 467.674
HO-68 25 Aug 07:31:31 07:33:25 11° 88° (E) 07:35:17 435.675
BRITE-PL 25 Aug 07:39:03 07:44:25 43° 289° (WNW) 07:49:42 437.365/2234.400
AO-85 25 Aug 07:40:37 07:45:17 31° 310° (NW) 07:49:44 145.980
DOVE 4 25 Aug 07:52:17 07:57:20 58° 99° (E) 08:02:05 437.250
Cubesat XI-IV 25 Aug 07:53:36 07:58:54 70° 287° (WNW) 08:04:10 437.490
RS-15 25 Aug 07:57:01 08:05:35 21° 12° (NNE) 08:14:13 29.354- 29.394
AO-7 25 Aug 08:01:08 08:01:25 10° 317° (NW) 08:01:40 29.400- 29.500
YUBILEINY 25 Aug 08:06:09 08:14:42 53° 283° (WNW) 08:23:20 435.215
CUTE-I 25 Aug 08:06:33 08:11:42 53° 289° (WNW) 08:16:51 437.470
Cosmos 2504 25 Aug 08:15:13 08:23:46 73° 94° (E) 08:31:46 435.465 / 435.565
NOAA 15 25 Aug 08:17:56 08:22:38 33° 292° (WNW) 08:27:20 137.62
STRAND 1 25 Aug 08:20:01 08:24:46 39° 262° (W) 08:29:33 437.568
NOAA 18 25 Aug 08:21:42 08:26:54 46° 290° (WNW) 08:32:04 137.9125
SEEDS 25 Aug 08:37:43 08:41:04 23° 95° (E) 08:44:24 437.485
LilacSat-2 25 Aug 08:50:24 08:51:04 10° 295° (WNW) 08:51:43 437.200
CANX-2 25 Aug 08:52:35 08:56:45 58° 100° (E) 09:00:55 2200.000
CINEMA 3 25 Aug 08:54:37 08:59:13 71° 102° (ESE) 09:03:33 145.822/145.860
SO-50 25 Aug 08:54:40 08:58:33 26° 48° (NE) 09:02:21 436.795
Cosmos 2491 25 Aug 08:55:04 08:56:25 10° 287° (WNW) 08:57:46 435.465 / 435.565
PHONESAT 2.4 25 Aug 08:55:38 08:57:58 21° 209° (SSW) 09:00:18 2401.200-2431.200
CUTE 1.7 + AOD 2 25 Aug 08:59:16 09:03:28 59° 101° (E) 09:07:39 437.475
PRISM 25 Aug 09:10:06 09:14:10 88° 76° (ENE) 09:18:18 437.425
GOMX 1 25 Aug 09:10:23 09:13:06 14° 299° (WNW) 09:15:47 467.674
HO-68 25 Aug 09:14:59 09:22:10 76° 104° (ESE) 09:29:19 435.675
AIST 1 25 Aug 09:15:41 09:18:41 19° 87° (E) 09:21:43
AAUSAT CUBESAT 2 25 Aug 09:16:57 09:20:46 34° 97° (E) 09:24:33 437.432
COMPASS 1 25 Aug 09:21:53 09:25:58 51° 100° (E) 09:30:02 437.405
ISS 25 Aug 09:28:08 09:30:55 26° 133° (SE) 09:33:43 145.825
DOVE 4 25 Aug 09:31:20 09:34:26 16° 297° (WNW) 09:37:27 437.250
CUBEBUG 2 25 Aug 09:32:11 09:36:19 47° 99° (E) 09:40:20 437.445
Oscar 11 25 Aug 09:34:21 09:37:39 21° 94° (E) 09:40:54 145.826/435.025
UWE-3 25 Aug 09:36:08 09:39:58 33° 97° (E) 09:43:42 435.000/436.395/437.385
FUNcube-1 25 Aug 09:37:56 09:41:03 20° 94° (E) 09:44:08 145.935
ANTELSAT 25 Aug 09:44:29 09:47:57 21° 67° (ENE) 09:51:22 437.575/2403.000
CUSAT 1 25 Aug 09:46:24 09:50:20 17° 70° (ENE) 09:54:41 437.405
DELFI C3 25 Aug 09:47:36 09:48:29 11° 91° (E) 09:49:21 145.870
BEESAT 3 25 Aug 09:53:15 09:55:41 16° 110° (ESE) 09:58:08 437.485
ZACube-1 25 Aug 09:57:12 10:01:04 36° 98° (E) 10:04:53 437.345
RS-15 25 Aug 10:10:56 10:22:38 45° 44° (NE) 10:34:09 29.354- 29.394
Cosmos 2504 25 Aug 10:11:30 10:17:46 22° 292° (WNW) 10:23:48 435.465 / 435.565
SEEDS 25 Aug 10:13:10 10:16:43 27° 290° (WNW) 10:20:17 437.485
TIGRISAT 25 Aug 10:15:14 10:19:34 41° 72° (ENE) 10:23:52 435.000
CANX-2 25 Aug 10:30:28 10:32:06 12° 296° (WNW) 10:33:45 2200.000
CINEMA 3 25 Aug 10:34:16 10:35:39 11° 299° (WNW) 10:37:00 145.822/145.860
SO-50 25 Aug 10:34:55 10:39:05 35° 246° (WSW) 10:43:07 436.795
CUTE 1.7 + AOD 2 25 Aug 10:37:16 10:38:47 12° 296° (WNW) 10:40:17 437.475
UNISAT 6 25 Aug 10:42:34 10:47:13 88° 76° (ENE) 10:51:48 437.425
AIST 1 25 Aug 10:52:06 10:56:00 33° 283° (WNW) 10:59:58
AAUSAT CUBESAT 2 25 Aug 10:53:06 10:55:59 18° 293° (WNW) 10:58:52 437.432
QB50P2 25 Aug 10:55:50 10:58:46 18° 67° (ENE) 11:01:42 145.880/145.840
DUCHIFAT 1 25 Aug 10:57:43 11:00:16 16° 66° (ENE) 11:02:50 145.980
POLYITAN 1 25 Aug 10:58:20 11:01:18 19° 67° (ENE) 11:04:15 437.675
COMPASS 1 25 Aug 10:59:06 11:01:04 13° 295° (WNW) 11:03:02 437.405
HO-68 25 Aug 11:04:05 11:09:07 21° 303° (WNW) 11:14:09 435.675
ISS 25 Aug 11:04:17 11:07:18 33° 329° (NNW) 11:10:20 145.825
BEESAT 2 25 Aug 11:05:14 11:09:05 53° 117° (ESE) 11:12:57 435.950
HUMSAT D 25 Aug 11:08:11 11:12:08 47° 99° (E) 11:16:04 437.325/437.525
NANOSAT C BR1 25 Aug 11:09:13 11:12:33 22° 68° (ENE) 11:15:52 145.865
Oscar 11 25 Aug 11:09:59 11:13:46 31° 290° (WNW) 11:17:34 145.826/435.025
CUBEBUG 2 25 Aug 11:10:16 11:12:30 14° 295° (WNW) 11:14:42 437.445
UWE-3 25 Aug 11:13:15 11:16:10 19° 293° (WNW) 11:19:04 435.000/436.395/437.385
FUNcube-1 25 Aug 11:13:43 11:17:19 29° 290° (WNW) 11:20:53 145.935
DELFI C3 25 Aug 11:19:43 11:23:37 53° 286° (WNW) 11:27:31 145.870
ANTELSAT 25 Aug 11:20:08 11:24:25 36° 262° (W) 11:28:39 437.575/2403.000
CUSAT 1 25 Aug 11:26:25 11:32:39 85° 262° (W) 11:40:17 437.405
BEESAT 3 25 Aug 11:29:20 11:33:01 39° 306° (NW) 11:36:44 437.485
Cosmos 2499 25 Aug 11:32:33 11:37:12 17° 80° (E) 11:41:42 435.465 / 435.565
ZACube-1 25 Aug 11:34:21 11:37:03 17° 294° (WNW) 11:39:45 437.345
AUBIESAT-1 25 Aug 11:43:47 11:46:57 21° 98° (E) 11:49:55 437.475
M-CUBED/EXP-1 PRIME 25 Aug 11:46:40 11:50:20 29° 100° (E) 11:53:44 437.505
QB50P1 25 Aug 11:50:29 11:54:45 70° 75° (ENE) 11:59:01 145.935-145.965
TIGRISAT 25 Aug 11:53:14 11:56:24 18° 267° (W) 11:59:32 435.000
DANDE 25 Aug 11:56:45 12:01:55 72° 81° (E) 12:08:46 436.750
POPSAT HIP 1 25 Aug 12:00:12 12:04:29 89° 68° (ENE) 12:08:48 437.405
BUGSAT 1 25 Aug 12:02:56 12:06:48 35° 71° (ENE) 12:10:41 437.445
VELOX 1 25 Aug 12:11:42 12:15:00 20° 94° (E) 12:18:16 145.980
CUBEBUG 1 25 Aug 12:20:33 12:24:30 31° 97° (E) 12:28:25 437.445
GONETS M04 25 Aug 12:20:41 12:29:00 51° 89° (E) 12:37:23
RS-15 25 Aug 12:23:39 12:35:42 62° 247° (WSW) 12:47:31 29.354- 29.394
JAS-2 25 Aug 12:24:49 12:29:55 66° 73° (ENE) 12:35:17 435.910
QB50P2 25 Aug 12:30:18 12:34:17 37° 262° (W) 12:38:16 145.880/145.840
DUCHIFAT 1 25 Aug 12:31:31 12:35:35 43° 261° (W) 12:39:40 145.980
POLYITAN 1 25 Aug 12:32:50 12:36:49 37° 262° (W) 12:40:48 437.675
DX 1 25 Aug 12:38:03 12:41:45 26° 96° (E) 12:45:23 434.975-435.025
ESTCUBE 1 25 Aug 12:39:45 12:44:19 80° 102° (ESE) 12:48:51 437.505/2401.250
Oscar 19 25 Aug 12:39:59 12:43:35 20° 64° (ENE) 12:47:12 437.125/150
ISS 25 Aug 12:43:24 12:44:34 11° 349° (N) 12:45:42 145.825
NANOSAT C BR1 25 Aug 12:44:22 12:48:06 29° 263° (W) 12:51:52 145.865
BEESAT 2 25 Aug 12:44:51 12:47:13 15° 315° (NW) 12:49:36 435.950
HUMSAT D 25 Aug 12:45:21 12:47:21 13° 295° (WNW) 12:49:19 437.325/437.525
SPROUT 25 Aug 12:51:10 12:54:49 27° 96° (E) 12:58:26 437.525
PCSat 25 Aug 12:52:54 12:58:17 75° 116° (ESE) 13:03:43 145.827
AIST 2 25 Aug 12:53:45 12:57:21 30° 114° (ESE) 13:00:59 435.215
50 SAT 25 Aug 12:56:05 12:59:44 68° 102° (ESE) 13:03:21 437.505
AISAT 25 Aug 12:59:28 13:03:58 73° 103° (ESE) 13:08:24 437.250
CUSAT 1 25 Aug 13:11:07 13:14:09 14° 274° (W) 13:17:25 437.405
AUBIESAT-1 25 Aug 13:17:53 13:21:24 27° 296° (WNW) 13:24:42 437.475
Cosmos 2499 25 Aug 13:21:02 13:29:24 86° 277° (W) 13:37:08 435.465 / 435.565
M-CUBED/EXP-1 PRIME 25 Aug 13:21:25 13:24:39 22° 299° (WNW) 13:27:42 437.505
TISAT 1 25 Aug 13:21:57 13:23:27 12° 91° (E) 13:24:56 437.305
UKube-1 25 Aug 13:23:16 13:27:36 65° 102° (ESE) 13:31:54 .
Gurwin Techsat 1B 25 Aug 13:27:58 13:32:16 26° 66° (ENE) 13:36:35 435.225
JUGNU 25 Aug 13:32:09 13:32:53 10° 176° (S) 13:33:36 437.505
BUGSAT 1 25 Aug 13:39:17 13:42:15 18° 266° (W) 13:45:14 437.445
DANDE 25 Aug 13:41:24 13:44:30 15° 270° (W) 13:48:00 436.750
VELOX 1 25 Aug 13:47:28 13:51:32 35° 289° (WNW) 13:55:35 145.980
ITAMSAT 1 25 Aug 13:50:03 13:52:06 12° 60° (ENE) 13:54:09 435.822/435.867
CUBEBUG 1 25 Aug 13:57:07 14:00:36 23° 292° (WNW) 14:04:04 437.445
JAS-2 25 Aug 14:13:31 14:15:40 12° 271° (W) 14:17:51 435.910
DX 1 25 Aug 14:14:09 14:17:51 27° 291° (WNW) 14:21:31 434.975-435.025
Oscar 19 25 Aug 14:17:30 14:22:29 51° 260° (W) 14:27:32 437.125/150
GONETS M04 25 Aug 14:18:22 14:26:03 34° 289° (WNW) 14:33:52
ESTCUBE 1 25 Aug 14:19:56 14:20:26 10° 299° (WNW) 14:20:56 437.505/2401.250
ISS 25 Aug 14:21:19 14:22:14 11° 10° (N) 14:23:09 145.825
SPROUT 25 Aug 14:27:10 14:30:38 24° 291° (WNW) 14:34:04 437.525
AIST 2 25 Aug 14:32:26 14:35:49 24° 311° (NW) 14:39:15 435.215
AO-85 25 Aug 14:33:26 14:36:45 21° 46° (NE) 14:39:53 145.980
O/OREOS (USA 219) 25 Aug 14:37:57 14:42:17 52° 107° (ESE) 14:46:41 437.305
AISAT 25 Aug 14:38:36 14:39:47 11° 298° (WNW) 14:40:58 437.250
PCSat 25 Aug 14:38:40 14:42:17 18° 315° (NW) 14:45:55 145.827
RS-15 25 Aug 14:42:17 14:45:29 11° 267° (W) 14:48:40 29.354- 29.394
SWISSCUBE 25 Aug 14:48:10 14:52:01 24° 95° (E) 14:55:50 437.505
TISAT 1 25 Aug 14:55:18 14:59:25 53° 286° (WNW) 15:03:28 437.305
UKube-1 25 Aug 15:01:36 15:03:04 12° 298° (WNW) 15:04:32 .
BEESAT 25 Aug 15:05:17 15:09:34 32° 97° (E) 15:13:48 436.000
Gurwin Techsat 1B 25 Aug 15:07:04 15:11:59 39° 262° (W) 15:16:58 435.225
AO-7 25 Aug 15:07:53 15:15:44 47° 63° (ENE) 15:23:35 29.400- 29.500
Cosmos 2499 25 Aug 15:19:03 15:23:29 15° 295° (WNW) 15:27:48 435.465 / 435.565
ITAMSAT 1 25 Aug 15:25:38 15:30:50 83° 258° (WSW) 15:36:03 435.822/435.867
MOZHAYETS 4 25 Aug 15:44:08 15:45:20 11° 90° (E) 15:46:32
ITUPSAT 1 25 Aug 15:50:37 15:55:25 86° 283° (WNW) 16:00:11 437.325
ISS 25 Aug 15:56:38 15:59:33 29° 29° (NNE) 16:02:28 145.825
KKS-1 25 Aug 15:57:06 15:58:24 11° 91° (E) 15:59:42 437.445
AO-85 25 Aug 16:13:29 16:17:18 35° 246° (WSW) 16:20:54 145.980
HORYU 2 25 Aug 16:15:51 16:18:25 15° 64° (ENE) 16:20:59 437.375
O/OREOS (USA 219) 25 Aug 16:19:17 16:22:01 16° 305° (NW) 16:24:46 437.305
YUBILEINY 25 Aug 16:23:27 16:27:43 14° 60° (ENE) 16:31:57 435.215
SWISSCUBE 25 Aug 16:25:34 16:29:49 34° 291° (WNW) 16:34:05 437.505
STARS 25 Aug 16:38:48 16:41:30 16° 93° (E) 16:44:10 437.465
BEESAT 25 Aug 16:43:18 16:47:11 25° 293° (WNW) 16:51:04 436.000
SRMSAT 25 Aug 16:51:43 16:53:02 11° 181° (S) 16:54:20 437.500
AO-7 25 Aug 17:00:54 17:08:32 39° 261° (W) 17:16:13 29.400- 29.500
BRITE-PL 25 Aug 17:11:20 17:15:02 23° 65° (ENE) 17:18:57 437.365/2234.400
MOZHAYETS 4 25 Aug 17:18:22 17:22:55 66° 285° (WNW) 17:27:26
KKS-1 25 Aug 17:30:56 17:35:21 63° 286° (WNW) 17:39:45 437.445
ISS 25 Aug 17:33:03 17:36:01 31° 225° (SW) 17:38:57 145.825
Cubesat XI-IV 25 Aug 17:36:12 17:40:12 22° 64° (ENE) 17:44:11 437.490
CUTE-I 25 Aug 17:48:17 17:52:46 28° 67° (ENE) 17:57:15 437.470
HORYU 2 25 Aug 17:50:12 17:54:32 50° 260° (W) 17:58:54 437.375
LilacSat-2 25 Aug 17:54:51 17:57:54 23° 70° (ENE) 18:00:56 437.200
NOAA 15 25 Aug 17:57:11 18:02:07 43° 70° (ENE) 18:07:05 137.62
Cosmos 2491 25 Aug 17:57:15 18:04:27 30° 83° (E) 18:11:40 435.465 / 435.565
NOAA 18 25 Aug 18:06:42 18:11:49 39° 68° (ENE) 18:16:55 137.9125
Cosmos 2504 25 Aug 18:10:41 18:15:58 21° 68° (ENE) 18:21:10 435.465 / 435.565
STARS 25 Aug 18:13:52 18:18:03 43° 288° (WNW) 18:22:11 437.465
YUBILEINY 25 Aug 18:17:22 18:26:11 75° 82° (E) 18:34:52 435.215
CUBESAT XI-V 25 Aug 18:31:31 18:36:14 89° 278° (W) 18:40:57 437.345
GOMX 1 25 Aug 18:36:37 18:41:33 72° 76° (ENE) 18:46:52 467.674
BRITE-PL 25 Aug 18:48:48 18:53:11 39° 264° (W) 18:57:57 437.365/2234.400
DOVE 4 25 Aug 18:55:40 19:00:36 52° 72° (ENE) 19:05:43 437.250
Cubesat XI-IV 25 Aug 19:14:46 19:19:55 47° 260° (W) 19:25:04 437.490
BEESAT 2 25 Aug 19:24:27 19:27:46 24° 50° (NE) 19:31:04 435.950
CUTE-I 25 Aug 19:27:48 19:32:39 35° 263° (W) 19:37:32 437.470
LilacSat-2 25 Aug 19:29:00 19:32:06 23° 265° (W) 19:35:13 437.200
SEEDS 25 Aug 19:29:30 19:31:47 14° 66° (ENE) 19:34:04 437.485
NOAA 15 25 Aug 19:38:02 19:42:03 22° 266° (W) 19:46:05 137.62
HO-68 25 Aug 19:42:05 19:48:57 51° 68° (ENE) 19:55:51 435.675
CANX-2 25 Aug 19:44:18 19:48:07 35° 72° (ENE) 19:51:56 2200.000
BEESAT 3 25 Aug 19:47:05 19:51:04 80° 58° (ENE) 19:55:01 437.485
NOAA 18 25 Aug 19:47:54 19:52:31 27° 264° (W) 19:57:09 137.9125
CUTE 1.7 + AOD 2 25 Aug 19:50:52 19:54:42 35° 72° (ENE) 19:58:33 437.475
Cosmos 2491 25 Aug 19:52:15 20:00:44 56° 282° (WNW) 20:09:20 435.465 / 435.565
CINEMA 3 25 Aug 19:54:03 19:58:58 58° 74° (ENE) 20:03:53 145.822/145.860
Cosmos 2504 25 Aug 20:02:48 20:09:57 64° 267° (W) 20:16:59 435.465 / 435.565
AAUSAT CUBESAT 2 25 Aug 20:06:42 20:09:44 20° 68° (ENE) 20:12:46 437.432
COMPASS 1 25 Aug 20:11:44 20:15:18 29° 70° (ENE) 20:18:53 437.405
YUBILEINY 25 Aug 20:15:52 20:21:57 21° 280° (W) 20:28:01 435.215
GOMX 1 25 Aug 20:18:10 20:20:14 12° 273° (W) 20:22:23 467.674
CUBEBUG 2 25 Aug 20:28:38 20:32:58 37° 72° (ENE) 20:37:14 437.445
Oscar 11 25 Aug 20:28:58 20:31:26 15° 65° (ENE) 20:33:56 145.826/435.025
STRAND 1 25 Aug 20:31:03 20:36:10 77° 103° (ESE) 20:41:16 437.568
UWE-3 25 Aug 20:31:51 20:35:42 27° 70° (ENE) 20:39:29 435.000/436.395/437.385
FUNcube-1 25 Aug 20:32:53 20:35:38 16° 66° (ENE) 20:38:21 145.935
DOVE 4 25 Aug 20:35:06 20:38:35 18° 269° (W) 20:42:08 437.250
ZACube-1 25 Aug 20:51:49 20:55:37 27° 70° (ENE) 20:59:21 437.345
PRISM 25 Aug 20:54:19 20:56:18 13° 92° (E) 20:58:16 437.425
AIST 1 25 Aug 20:59:38 21:03:56 51° 80° (E) 21:08:12
BEESAT 2 25 Aug 21:02:06 21:05:34 29° 246° (WSW) 21:09:02 435.950
SEEDS 25 Aug 21:03:06 21:07:05 45° 261° (W) 21:11:05 437.485
AIST 2 25 Aug 21:16:14 21:19:07 18° 46° (NE) 21:21:59 435.215
CANX-2 25 Aug 21:21:11 21:24:03 18° 267° (W) 21:26:56 2200.000
CUTE 1.7 + AOD 2 25 Aug 21:27:50 21:30:39 17° 267° (W) 21:33:28 437.475
HO-68 25 Aug 21:30:45 21:36:52 30° 264° (W) 21:43:01 435.675
CINEMA 3 25 Aug 21:33:29 21:36:24 15° 269° (W) 21:39:20 145.822/145.860
AAUSAT CUBESAT 2 25 Aug 21:41:24 21:45:00 30° 263° (W) 21:48:39 437.432
PCSat 25 Aug 21:41:56 21:47:10 47° 57° (ENE) 21:52:22 145.827
COMPASS 1 25 Aug 21:47:46 21:50:51 20° 266° (W) 21:53:58 437.405
HUMSAT D 25 Aug 21:58:28 22:02:05 29° 70° (ENE) 22:05:39 437.325/437.525
Oscar 11 25 Aug 22:03:02 22:07:10 46° 261° (W) 22:11:20 145.826/435.025
DELFI C3 25 Aug 22:04:03 22:07:57 72° 76° (ENE) 22:11:53 145.870
CUBEBUG 2 25 Aug 22:06:06 22:09:39 21° 266° (W) 22:13:09 437.445
FUNcube-1 25 Aug 22:07:13 22:11:30 45° 261° (W) 22:15:45 145.935
UWE-3 25 Aug 22:08:05 22:12:03 28° 264° (W) 22:15:57 435.000/436.395/437.385
STRAND 1 25 Aug 22:12:24 22:14:40 13° 299° (WNW) 22:16:56 437.568
AUBIESAT-1 25 Aug 22:27:34 22:31:29 28° 64° (ENE) 22:35:25 437.475
PRISM 25 Aug 22:27:48 22:31:50 47° 287° (WNW) 22:35:51 437.425
ZACube-1 25 Aug 22:28:04 22:31:49 26° 264° (W) 22:35:32 437.345
M-CUBED/EXP-1 PRIME 25 Aug 22:30:49 22:35:03 36° 66° (ENE) 22:39:23 437.505
GONETS M04 25 Aug 22:32:49 22:39:39 24° 67° (ENE) 22:46:24
UNISAT 6 25 Aug 22:36:28 22:39:30 19° 93° (E) 22:42:29 437.425
AIST 1 25 Aug 22:39:12 22:41:01 12° 276° (W) 22:42:49
AIST 2 25 Aug 22:53:49 22:57:52 49° 243° (WSW) 23:01:53 435.215
VELOX 1 25 Aug 23:08:34 23:11:22 17° 65° (ENE) 23:14:10 145.980
SO-50 25 Aug 23:11:49 23:12:04 10° 106° (ESE) 23:12:19 436.795
ANTELSAT 25 Aug 23:12:39 23:16:49 47° 99° (E) 23:20:55 437.575/2403.000
Cosmos 2499 25 Aug 23:14:15 23:20:12 28° 71° (ENE) 23:26:07 435.465 / 435.565
CUBEBUG 1 25 Aug 23:15:44 23:19:11 23° 68° (ENE) 23:22:41 437.445
PCSat 25 Aug 23:26:03 23:30:13 23° 253° (WSW) 23:34:21 145.827
50 SAT 25 Aug 23:32:40 23:35:35 24° 71° (ENE) 23:38:31 437.505
DX 1 25 Aug 23:32:56 23:36:09 20° 66° (ENE) 23:39:23 434.975-435.025
HUMSAT D 25 Aug 23:34:29 23:37:41 21° 265° (W) 23:40:53 437.325/437.525
JAS-2 25 Aug 23:37:28 23:38:36 10° 88° (E) 23:39:45 435.910
ESTCUBE 1 25 Aug 23:37:58 23:42:22 63° 75° (ENE) 23:46:49 437.505/2401.250
QB50P1 25 Aug 23:38:24 23:40:01 12° 91° (E) 23:41:40 145.935-145.965
SPROUT 25 Aug 23:44:09 23:47:12 19° 67° (ENE) 23:50:16 437.525
TIGRISAT 25 Aug 23:44:11 23:48:29 77° 284° (WNW) 23:52:43 435.000
POPSAT HIP 1 25 Aug 23:47:25 23:49:56 15° 93° (E) 23:52:24 437.405
AISAT 25 Aug 23:55:27 23:59:47 55° 73° (ENE) 00:04:10 437.250
AUBIESAT-1 26 Aug 00:01:44 00:05:46 30° 259° (W) 00:09:54 437.475
M-CUBED/EXP-1 PRIME 26 Aug 00:05:53 00:09:35 23° 261° (W) 00:13:22 437.505
UNISAT 6 26 Aug 00:12:25 00:16:19 34° 289° (WNW) 00:20:09 437.425
QB50P2 26 Aug 00:16:07 00:20:01 35° 97° (E) 00:23:53 145.880/145.840
UKube-1 26 Aug 00:16:32 00:20:39 47° 72° (ENE) 00:24:49 .
DUCHIFAT 1 26 Aug 00:16:48 00:20:30 29° 97° (E) 00:24:09 145.980
POLYITAN 1 26 Aug 00:18:39 00:22:33 36° 98° (E) 00:26:25 437.675
GONETS M04 26 Aug 00:28:28 00:37:18 73° 267° (W) 00:46:03
NANOSAT C BR1 26 Aug 00:29:15 00:33:18 45° 99° (E) 00:37:19 145.865
CUSAT 1 26 Aug 00:31:00 00:33:42 58° 282° (WNW) 00:36:57 437.405
RS-15 26 Aug 00:35:55 00:44:28 25° 100° (E) 00:53:16 29.354- 29.394
VELOX 1 26 Aug 00:43:12 00:47:26 45° 260° (W) 00:51:44 145.980
SO-50 26 Aug 00:46:57 00:51:50 87° 297° (WNW) 00:56:41 436.795
O/OREOS (USA 219) 26 Aug 00:48:46 00:53:23 85° 69° (ENE) 00:57:59 437.305
ANTELSAT 26 Aug 00:50:47 00:53:06 14° 295° (WNW) 00:55:24 437.575/2403.000
CUBEBUG 1 26 Aug 00:51:27 00:55:19 30° 264° (W) 00:59:13 437.445
50 SAT 26 Aug 01:06:36 01:09:08 18° 265° (W) 01:11:41 437.505
Cosmos 2499 26 Aug 01:06:50 01:13:30 47° 270° (W) 01:20:13 435.465 / 435.565
DANDE 26 Aug 01:07:47 01:10:22 84° 274° (W) 01:13:02 436.750
DX 1 26 Aug 01:08:07 01:12:06 34° 262° (W) 01:16:06 434.975-435.025
QB50P1 26 Aug 01:12:00 01:16:07 52° 286° (WNW) 01:20:11 145.935-145.965
JAS-2 26 Aug 01:17:36 01:24:21 71° 102° (ESE) 01:31:52 435.910
ESTCUBE 1 26 Aug 01:18:18 01:19:35 11° 270° (W) 01:20:52 437.505/2401.250
SPROUT 26 Aug 01:18:54 01:22:52 36° 262° (W) 01:26:52 437.525
BUGSAT 1 26 Aug 01:20:41 01:24:50 70° 101° (ESE) 01:28:54 437.445
POPSAT HIP 1 26 Aug 01:21:55 01:25:53 41° 288° (WNW) 01:29:49 437.405
ITUPSAT 1 26 Aug 01:22:49 01:23:44 11° 60° (ENE) 01:24:39 437.325
AISAT 26 Aug 01:34:37 01:36:35 13° 269° (W) 01:38:34 437.250
TISAT 1 26 Aug 01:45:15 01:49:30 86° 259° (W) 01:53:47 437.305
QB50P2 26 Aug 01:52:38 01:55:33 18° 293° (WNW) 01:58:26 145.880/145.840
DUCHIFAT 1 26 Aug 01:52:49 01:56:00 21° 292° (WNW) 01:59:11 145.980
SWISSCUBE 26 Aug 01:53:43 01:57:35 25° 67° (ENE) 02:01:27 437.505
UKube-1 26 Aug 01:54:37 01:56:56 14° 268° (W) 01:59:16 .
POLYITAN 1 26 Aug 01:55:12 01:58:04 18° 294° (WNW) 02:00:55 437.675
NANOSAT C BR1 26 Aug 02:06:15 02:08:38 15° 295° (WNW) 02:11:01 145.865
BEESAT 26 Aug 02:10:38 02:14:53 33° 69° (ENE) 02:19:08 436.000
GONETS M04 26 Aug 02:29:25 02:32:24 12° 286° (WNW) 02:35:22
Oscar 19 26 Aug 02:29:53 02:35:03 62° 101° (ESE) 02:40:12 437.125/150
SO-50 26 Aug 02:30:27 02:33:00 14° 320° (NW) 02:35:32 436.795
RS-15 26 Aug 02:43:49 02:55:21 84° 301° (WNW) 03:07:35 29.354- 29.394
MOZHAYETS 4 26 Aug 02:46:26 02:46:53 10° 62° (ENE) 02:47:20
KKS-1 26 Aug 02:55:34 02:56:02 10° 61° (ENE) 02:56:30 437.445
ITUPSAT 1 26 Aug 02:56:05 03:00:50 85° 256° (WSW) 03:05:38 437.325
PHONESAT 2.4 26 Aug 02:58:51 03:01:33 30° 155° (SSE) 03:04:14 2401.200-2431.200
JAS-2 26 Aug 03:03:56 03:08:53 22° 297° (WNW) 03:14:12 435.910
AO-7 26 Aug 03:13:26 03:17:03 13° 89° (E) 03:20:38 29.400- 29.500
Gurwin Techsat 1B 26 Aug 03:23:48 03:29:09 90° 359° (N) 03:34:28 435.225
SWISSCUBE 26 Aug 03:30:58 03:35:13 32° 263° (W) 03:39:29 437.505
STARS 26 Aug 03:35:11 03:37:23 14° 63° (ENE) 03:39:35 437.465
ITAMSAT 1 26 Aug 03:39:46 03:44:34 37° 98° (E) 03:49:20 435.822/435.867
BEESAT 26 Aug 03:48:51 03:52:40 24° 265° (W) 03:56:32 436.000
Cosmos 2491 26 Aug 04:09:50 04:13:48 13° 59° (ENE) 04:17:45 435.465 / 435.565
Oscar 19 26 Aug 04:10:40 04:13:50 17° 298° (WNW) 04:17:00 437.125/150
MOZHAYETS 4 26 Aug 04:18:47 04:23:21 81° 257° (WSW) 04:27:57
KKS-1 26 Aug 04:27:26 04:31:55 80° 259° (W) 04:36:26 437.445
PHONESAT 2.4 26 Aug 04:34:45 04:37:46 80° 353° (N) 04:40:46 2401.200-2431.200
AO-85 26 Aug 04:49:10 04:50:23 11° 106° (ESE) 04:51:36 145.980
Gurwin Techsat 1B 26 Aug 05:06:30 05:08:18 12° 301° (WNW) 05:10:05 435.225
